Find Skynet 4F

NORAD ID: 26695 Int'l Des: 2001-005 Owner: MOD Country: UK operational
HEOCIRCULAR

Current View

Loading 3D Globe...

About Skynet 4F

Skynet 4F (NORAD 26695) is a satellite launched Feb 7, 2001 by MOD of UK. It operates in HEO, CIRCULAR orbit with a mass of 1489.00 kg.

Upcoming Passes

Passes for default location (London). Set your location on the main map for personalized predictions.

Altitude History

Loading altitude history...

Two-Line Element Set

1 26695U 01005B 26195.20456939 -.00000139 00000-0 00000-0 0 9999
2 26695 12.1527 18.2973 0005374 214.2998 143.1306 0.99149812 92879
Epoch: Jul 14, 2026 • Age: 16 hours

Current Status

Altitude 36083.8 km
Apogee / Perigee N/A
Velocity 3.06 km/s
Sub-Earth Point -9.65°S, 6.74°E
Launch Date Feb 7, 2001
Age 25.4 years
Type other

Technical Details

Classification Payload
Mass 1489.00 kg
Dry Mass 830.00 kg
Total Mass 2119.00 kg
Length 1.80 m
Diameter 1.90 m
Span 16.10 m
Shape Box + 2 Pan
Manufacturer ASTUK
Bus Type ECS
Phase Status Renamed
Owner/State MOD/UK

Most Searched